TIANQI 34 (62366 NORAD) Tracking and Keplerian Element Data

This shows tracking and keplerian element data for the satellite.

Feedback or suggestion? Click here.




ElementValue
Catalog62366
NameTIANQI 34
Epoch Orbit661
Epoch Day35.35482297
Epoch Year2025
RAAN16.4887
Inclination44.9815
Eccentricity0.000473
Argument of Perigee216.0644
Mean Anonmoly143.987
Mean Motion13.98912637
Decay Rate3.51E-06
L11 62366U 24245B 25035.35482297 .00000351 00000+0 33039-3 0 9994
L22 62366 44.9815 16.4887 0004730 216.0644 143.9870 13.98912637 6611



Live tracking and technical data element details for TIANQI 34 (NORAD 62366). TIANQI 34 can be tracked NOW for your location showing map with azimuth and elevation plus other details from your city location.







IsCatalogInMostPopularTable: catalog: 62366, numindb: 9
Update: records affected: 1



GetName: 62366 TIANQI 34

Hit Count: updated at: Sun, 18 May 2025 22:08:32 GMT